Weather in Girona

Spain     41°58′57″N   2°49′07″E
temp.,
°C
wind,
m/s
gust,
m/s
humid.,
%
clouds,
%
prec.,
mm/h
press.,
hPa
HPBL,
m
9 march, tue
tue901:00+8wnw228191 0.0 101650
04:00+7wnw128159 0.0 101624
07:00+6nw128030 0.0 101631
10:00+12ene12520 0.0 1017463
13:00+15e21440 0.0 10171286
16:00+13sse336545 1.3 1016847
19:00+10sw128461 2.8 1016142
22:00+8nne128879 0.4 101981
10 march, wed
wed1001:00+6w118355 0.4 102049
04:00+5nw12870 0.0 101938
07:00+5w11840 0.0 102128
10:00+11ese10650 0.0 1022335
13:00+16sse23410 0.0 10221334
16:00+15sse33460 0.0 1021886
19:00+9s23780 0.0 1022124
22:00+8w12710 0.0 102329
11 march, thu
thu1101:00+7w22700 0.0 102327
04:00+7w227146 0.0 102225
07:00+6w227048 0.0 102326
10:00+14wsw114544 0.0 1023239
13:00+18se213155 0.0 1023690
16:00+18sse2335100 0.0 1021548
19:00+13s015799 0.0 102158
22:00+11nw2261100 0.0 102228
12 march, fri
fri1201:00+10w225887 0.0 102123
04:00+10wnw125699 0.0 102023
07:00+9nw1262100 0.0 102025
10:00+13ne2365100 0.0 1021568
13:00+14e345999 0.0 1021931
16:00+9ne2685100 0.5 1020531
19:00+8nnw1292100 3.6 1021261
22:00+9wsw1190100 1.9 1023119
13 march, sat
sat1301:00+9se008997 2.0 102459
04:00+7ne019055 0.0 102424
07:00+6nne119232 0.1 102428
10:00+11ese01744 0.0 1025454
13:00+15se115222 0.1 10241268
16:00+14e215490 0.1 10231159
19:00+10sse226854 0.1 1023137
22:00+8sw127629 0.0 1025103